Powrót do katalogu

FENGYUN 1C DEB

AktywnySSO
NORAD 30010·DEBRIS·🇨🇳 China

Wystrzelony May 10, 1999 z Taiyuan Satellite Launch Center

Loading…

Następne Przeloty (najbliższe 24 godziny)

TLE

ŚwieżeSource: Space-Track

Epoka: Sep 14, 2026, 09:22 UTC

1 30010U 99025MK  26257.39044131  .00000110  00000-0  64757-4 0  9991
2 30010  99.0550 103.5968 0073672 137.0019 346.1564 14.25123511 21852

Śledź FENGYUN 1C DEB w czasie rzeczywistym z AllMySat

Download on the App Store